Location: Unspecified
(0.0000°N, 0.0000°E)
Time: 16:38:59
(UTC+00:00)

SR - Visible Passes

Search period start: 12 April 2021 00:00
Search period end: 22 April 2021 00:00
Orbit: 573 x 882 km, 66.7° (Epoch: 11 April)

Date Brightness Start Highest point End Pass type
(mag) Time Alt. Az. Time Alt. Az. Time Alt. Az.
12 Apr ? 18:41:30 10° NNE 18:44:50 17° ENE 18:46:27 15° E visible
12 Apr ? 20:22:20 10° NW 20:25:56 26° W 20:25:56 26° W visible
13 Apr ? 19:31:49 10° NNW 19:37:04 76° WSW 19:38:43 42° S visible
14 Apr ? 18:42:26 10° N 18:47:19 39° ENE 18:51:32 12° SE visible
14 Apr ? 20:27:41 10° W 20:28:58 11° WSW 20:30:13 10° WSW visible
15 Apr ? 19:34:54 10° NW 19:39:22 30° WSW 19:43:31 10° S visible
16 Apr ? 18:44:31 10° NNW 18:49:44 84° WSW 18:54:30 10° SSE visible
17 Apr ? 05:30:20 10° SE 05:32:49 14° ESE 05:35:23 10° ENE visible
17 Apr ? 19:39:44 10° W 19:41:39 12° WSW 19:43:31 10° SW visible
18 Apr ? 18:47:29 10° NW 18:52:03 33° WSW 18:56:17 10° S visible
19 Apr ? 05:30:42 10° S 05:35:06 33° ESE 05:39:51 10° NE visible
20 Apr ? 04:43:24 10° SE 04:45:30 13° ESE 04:47:39 10° E visible
20 Apr ? 18:51:59 10° W 18:54:20 13° WSW 18:56:37 10° SW visible
